Location: Gleizolles
(44.4833°N, 6.7667°E)
Time: 10:06:15
(UTC+00:00)

Tiros 1 - Pass Details

Date: 02 July 2024
Orbit: 624 x 656 km, 48.4° (Epoch: 20 July)

Event Time Altitude Azimuth Distance (km) Brightness Sun altitude
Rises 02:40:16 0° 286° (WNW) 2,909 10.2 -10.6°
Reaches altitude 10° 02:43:07 10° 268° (W) 2,003 9.3 -10.3°
Maximum altitude 02:46:20 19° 224° (SW) 1,504 8.4 -9.9°
Drops below altitude 10° 02:49:34 10° 179° (S) 2,007 9.3 -9.5°
Sets 02:52:27 0° 162° (SSE) 2,918 10.2 -9.1°
